This is the latest recevied weather packets stored in our database for station/object G1SCQ. If no packets are shown the sender has not sent any weather packets the latest 10 day(s).
| Time | Temp. | Humidity | Pressure | Rain* | Wind** | Luminosity | Snow |
|---|---|---|---|---|---|---|---|
| 1778270946 | 11.67° C | 76% | 1018.4 hPa | 0 mm | - | 0 W/m² | - |
| 1778270406 | 12.22° C | 74% | 1018.1 hPa | 0 mm | - | 0 W/m² | - |
| 1778270045 | 12.22° C | 73% | 1018.3 hPa | 0 mm | - | 0 W/m² | - |
| 1778269506 | 12.22° C | 71% | 1018.2 hPa | 0 mm | - | 1 W/m² | - |
| 1778268966 | 12.78° C | 69% | 1018.1 hPa | 0 mm | - | 2 W/m² | - |
| 1778268426 | 13.33° C | 68% | 1018 hPa | 0 mm | - | 4 W/m² | - |
| 1778267885 | 13.33° C | 67% | 1017.8 hPa | 0 mm | - | 7 W/m² | - |
| 1778267347 | 13.33° C | 66% | 1017.9 hPa | 0 mm | - | 12 W/m² | - |
| 1778266806 | 13.89° C | 66% | 1017.7 hPa | 0 mm | - | 16 W/m² | - |
| 1778266449 | 13.89° C | 66% | 1017.6 hPa | 0 mm | - | 19 W/m² | - |
| 1778265906 | 14.44° C | 66% | 1017.7 hPa | 0 mm | - | 23 W/m² | - |
| 1778265369 | 15° C | 65% | 1017.6 hPa | 0 mm | - | 26 W/m² | - |
| 1778264826 | 15° C | 64% | 1017.6 hPa | 0 mm | - | 30 W/m² | - |
| 1778264285 | 15.56° C | 63% | 1017.3 hPa | 0 mm | - | 45 W/m² | - |
| 1778263745 | 16.11° C | 62% | 1017.4 hPa | 0 mm | - | 56 W/m² | - |
| 1778263205 | 16.11° C | 61% | 1017.2 hPa | 0 mm | - | 76 W/m² | - |
| 1778262845 | 16.67° C | 61% | 1017.7 hPa | 0 mm | - | 100 W/m² | - |
| 1778262305 | 16.67° C | 60% | 1017.3 hPa | 0 mm | - | 129 W/m² | - |
| 1778261765 | 16.67° C | 60% | 1017.3 hPa | 0 mm | - | 137 W/m² | - |
| 1778261225 | 16.67° C | 60% | 1016.9 hPa | 0 mm | - | 154 W/m² | - |
| 1778260685 | 17.22° C | 57% | 1017 hPa | 0 mm | - | 195 W/m² | - |
| 1778260145 | 16.67° C | 58% | 1017 hPa | 0 mm | - | 210 W/m² | - |
| 1778259605 | 16.67° C | 61% | 1017 hPa | 0 mm | - | 201 W/m² | - |
| 1778259245 | 16.67° C | 59% | 1017 hPa | 0 mm | - | 216 W/m² | - |
| 1778258705 | 17.22° C | 59% | 1017 hPa | 0 mm | - | 231 W/m² | - |
* Rain latest hour (hover to see other rain measurements)
** Current wind speed in m/s (hover to see current wind gust speed)